Waarnemingen

Advertentie
Mijn weer
Dax, Frankrijk (7603): temperatuur & dauwpunt: 18.11.2017 17:00:00 - 24.11.2017 17:00:00 (CET)Dax, Frankrijk (7603): temperatuur 5cm: 18.11.2017 17:00:00 - 24.11.2017 17:00:00 (CET)Dax, Frankrijk (7603): temperatuur -20cm & temperatuur -100cm: 18.11.2017 17:00:00 - 24.11.2017 17:00:00 (CET)Dax, Frankrijk (7603): windsnelheid & windstoten: 18.11.2017 17:00:00 - 24.11.2017 17:00:00 (CET)Dax, Frankrijk (7603): windrichting: 18.11.2017 17:00:00 - 24.11.2017 17:00:00 (CET)Dax, Frankrijk (7603): luchtdruk: 18.11.2017 17:00:00 - 24.11.2017 17:00:00 (CET)Dax, Frankrijk (7603): zicht: 18.11.2017 17:00:00 - 24.11.2017 17:00:00 (CET)Dax, Frankrijk (7603): Zonneschijnduur: 18.11.2017 17:00:00 - 24.11.2017 17:00:00 (CET)Dax, Frankrijk (7603): neerslag: 18.11.2017 17:00:00 - 24.11.2017 17:00:00 (CET)
Datum & Tijd tt [°C] td [°C] tt 5cm [°C] tt -20cm [°C] tt -100cm [°C] ff [km/u] ff [kn] fx [km/u] fx [kn] dd ppp [hPa] vv [km] sd [min] rr [mm]
24.11.2017 17:00:00 16,2 11,1 16,0 11,6 13,8 4 2 9 5 - 1015,8 10 0 0,0
24.11.2017 16:00:00 16,9 10,7 17,0 11,5 13,8 5 3 13 7 - 1015,7 10 0 0,0
24.11.2017 15:00:00 17,2 10,1 17,3 11,4 13,8 8 4 17 9 W 1015,8 10 0 0,0
24.11.2017 14:00:00 17,2 9,6 17,0 11,3 13,8 5 3 10 5 - 1016,2 10 0 0,0
24.11.2017 13:00:00 16,6 8,5 16,3 11,3 13,8 4 2 15 8 W 1016,4 20 0 0,0
24.11.2017 12:00:00 16,4 8,4 15,9 11,2 13,7 8 4 14 8 ZW 1016,8 10 0 0,0
24.11.2017 11:00:00 14,9 9,7 14,1 11,1 13,8 4 2 8 5 ZZO 1016,7 10 0 0,0
24.11.2017 10:00:00 14,8 7,3 13,9 11,1 13,8 4 2 10 5 - 1016,3 10 0 0,0
24.11.2017 09:00:00 15,2 6,5 14,3 11,1 13,8 8 4 13 7 ZZW 1016,0 10 0 0,0
24.11.2017 08:00:00 15,9 6,3 13,8 11,1 13,8 9 5 16 9 ZZW 1015,7 10 0 0,0
24.11.2017 07:00:00 15,3 5,2 13,8 11,1 13,8 5 3 21 11 WZW 1015,1 10 0 0,0
24.11.2017 06:00:00 15,4 5,3 9,2 11,1 13,7 11 6 19 10 ZW 1014,6 10 0 0,0
24.11.2017 05:00:00 9,8 6,7 8,3 11,1 13,7 0 0 8 4 N 1014,5 10 0 0,0
24.11.2017 04:00:00 9,0 6,3 8,0 11,2 13,8 2 1 5 3 - 1014,3 10 0 0,0
24.11.2017 03:00:00 9,3 6,0 8,5 11,2 13,8 4 2 10 5 O 1014,3 10 0 0,0
24.11.2017 02:00:00 9,4 6,3 8,3 11,3 13,8 8 4 10 6 OZO 1014,2 10 0 0,0
24.11.2017 01:00:00 9,5 6,2 8,7 11,3 13,8 5 3 11 6 OZO 1014,3 10 0 0,0
24.11.2017 00:00:00 9,8 6,3 8,4 11,4 13,8 8 4 9 5 OZO 1014,4 10 0 0,0
23.11.2017 23:00:00 10,2 6,5 8,9 11,4 13,8 8 4 10 6 OZO 1014,3 10 0 0,0
23.11.2017 22:00:00 10,9 6,6 9,8 11,4 13,8 8 4 10 5 OZO 1014,4 10 0 0,0
23.11.2017 21:00:00 12,8 6,8 11,1 11,4 13,8 9 5 18 10 OZO 1014,3 10 0 0,0
23.11.2017 20:00:00 14,1 7,2 12,5 11,4 13,8 5 3 13 7 ZO 1014,3 10 0 0,0
23.11.2017 19:00:00 15,0 7,5 11,6 11,4 13,8 9 5 11 6 O 1014,2 10 0 0,0
23.11.2017 18:00:00 17,0 5,9 14,8 11,3 13,8 0 0 6 3 N 1014,0 10 5 0,0
23.11.2017 17:00:00 19,6 6,3 18,8 11,2 13,8 5 3 23 12 ZW 1013,7 10 20 0,0
23.11.2017 16:00:00 20,8 6,3 21,0 11,0 13,8 13 7 29 15 WZW 1013,3 10 28 0,0
23.11.2017 15:00:00 21,8 6,1 22,9 10,8 13,8 22 12 35 19 ZW 1013,3 10 57 0,0
23.11.2017 14:00:00 22,1 6,3 23,3 10,7 13,8 22 12 41 22 ZW 1013,2 10 60 0,0
23.11.2017 13:00:00 21,5 5,8 22,0 10,6 13,8 18 10 42 23 ZW 1013,2 10 53 0,0
23.11.2017 12:00:00 20,5 5,7 19,4 10,5 13,8 15 8 24 13 ZW 1013,3 10 41 0,0
23.11.2017 11:00:00 17,5 5,1 17,2 10,5 13,8 4 2 16 8 - 1013,1 10 0 0,0
23.11.2017 10:00:00 17,4 4,3 15,9 10,5 13,8 9 5 19 11 ZW 1012,4 10 0 0,0
23.11.2017 09:00:00 16,3 3,0 9,4 10,5 13,8 13 7 23 12 ZW 1011,6 10 0 0,0
23.11.2017 08:00:00 12,5 2,1 8,3 10,5 13,8 9 5 14 7 ZZW 1010,8 10 0 0,0
23.11.2017 07:00:00 14,4 0,6 11,3 10,6 13,8 5 3 11 6 Z 1009,9 10 0 0,0
23.11.2017 06:00:00 15,3 0,7 12,4 10,6 13,8 5 3 14 8 Z 1009,4 10 0 0,0
23.11.2017 05:00:00 15,8 0,7 13,2 10,6 13,8 5 3 18 10 Z 1009,2 10 0 0,0
23.11.2017 04:00:00 15,9 1,2 12,8 10,6 13,8 8 4 11 6 Z 1009,2 10 0 0,0
23.11.2017 03:00:00 17,2 1,2 15,1 10,6 13,8 8 4 22 12 ZZW 1009,2 10 0 0,0
23.11.2017 02:00:00 16,2 1,9 13,7 10,6 13,9 11 6 18 10 ZZW 1008,7 10 0 0,0
23.11.2017 01:00:00 17,2 1,2 15,7 10,6 13,9 8 4 21 11 Z 1008,6 10 0 0,0
23.11.2017 00:00:00 17,3 1,3 10,1 10,6 13,9 11 6 19 10 Z 1008,5 10 0 0,0
22.11.2017 23:00:00 11,4 3,2 7,1 10,6 13,9 4 2 12 6 - 1008,6 10 0 0,0
22.11.2017 22:00:00 9,3 4,5 7,7 10,6 13,9 2 1 13 7 - 1008,7 10 0 0,0
22.11.2017 21:00:00 9,5 4,1 7,3 10,6 13,9 8 4 11 6 ZO 1008,7 10 0 0,0
22.11.2017 20:00:00 10,7 3,7 9,0 10,6 13,9 4 2 13 7 - 1008,6 10 0 0,0
22.11.2017 19:00:00 13,0 3,6 10,8 10,6 13,9 5 3 14 8 N 1009,0 10 0 0,0
22.11.2017 18:00:00 17,8 1,3 14,6 10,4 13,9 9 5 15 8 Z 1008,4 10 8 0,0
22.11.2017 17:00:00 20,8 2,1 20,6 10,3 13,9 5 3 18 10 - 1008,4 10 60 0,0
22.11.2017 16:00:00 22,7 2,2 24,4 10,0 13,9 13 7 19 11 Z 1008,6 10 60 0,0
22.11.2017 15:00:00 21,6 5,9 25,8 9,9 13,9 8 4 13 7 NNW 1009,3 10 60 0,0
22.11.2017 14:00:00 20,3 6,2 22,2 9,7 13,9 0 0 7 4 N 1009,8 10 60 0,0
22.11.2017 13:00:00 16,0 8,5 20,6 9,6 13,9 5 3 7 4 - 1010,7 10 60 0,0
22.11.2017 12:00:00 13,1 6,9 13,1 9,6 13,9 2 1 11 6 - 1011,4 10 60 0,0
22.11.2017 11:00:00 10,0 5,6 9,3 9,6 14,0 5 3 9 5 - 1012,0 10 60 0,0
22.11.2017 10:00:00 6,3 3,5 3,2 9,7 14,0 4 2 11 6 O 1012,3 19 60 0,0
22.11.2017 09:00:00 2,6 1,3 -0,2 9,8 14,0 4 2 9 5 - 1012,6 10 29 0,0
22.11.2017 08:00:00 1,3 0,3 -0,7 9,9 14,0 5 3 10 5 O 1012,9 10 0 0,0
22.11.2017 07:00:00 2,0 1,3 -0,4 10,0 14,0 4 2 10 5 O 1013,2 9 0 0,0
22.11.2017 06:00:00 2,5 1,8 0,1 10,0 14,0 4 2 9 5 ONO 1013,8 9 0 0,0
22.11.2017 05:00:00 2,7 2,0 0,4 10,1 14,0 5 3 10 5 O 1014,4 10 0 0,0
22.11.2017 04:00:00 2,7 2,1 0,7 10,2 14,0 4 2 10 5 - 1015,0 8 0 0,0
22.11.2017 03:00:00 3,4 2,7 1,6 10,3 14,0 8 4 10 6 O 1015,6 9 0 0,0
22.11.2017 02:00:00 3,5 3,1 1,1 10,4 14,0 5 3 9 5 OZO 1015,8 6 0 0,0
22.11.2017 01:00:00 3,8 2,8 1,7 10,5 14,0 0 0 8 4 N 1016,7 5 0 0,0
22.11.2017 00:00:00 4,5 3,9 2,5 10,5 14,0 0 0 6 3 N 1017,1 5 0 0,0
21.11.2017 23:00:00 5,3 3,9 3,8 10,6 14,0 0 0 8 5 N 1017,3 4,3 0 0,0
21.11.2017 22:00:00 5,7 4,7 4,0 10,6 14,0 2 1 9 5 - 1017,3 6 0 0,0
21.11.2017 21:00:00 7,8 6,4 6,1 10,7 14,1 0 0 6 3 N 1017,6 5 0 0,0
21.11.2017 20:00:00 8,7 6,3 6,6 10,7 14,1 2 1 10 5 - 1017,8 6 0 0,0
21.11.2017 19:00:00 11,1 6,8 9,1 10,6 14,1 5 3 7 4 NNO 1018,1 8 0 0,0
21.11.2017 18:00:00 13,5 5,9 11,8 10,5 14,1 0 0 5 3 N 1018,1 10 9 0,0
21.11.2017 17:00:00 17,7 6,2 16,9 10,3 14,1 4 2 8 5 - 1018,2 10 60 0,0
21.11.2017 16:00:00 19,3 5,7 21,6 10,1 14,1 0 0 9 5 N 1018,5 10 60 0,0
21.11.2017 15:00:00 18,8 5,9 22,5 9,9 14,1 0 0 6 4 N 1019,0 10 60 0,0
21.11.2017 14:00:00 18,7 7,2 21,7 9,8 14,1 0 0 6 3 N 1019,7 10 60 0,0
21.11.2017 13:00:00 16,0 7,5 18,9 9,7 14,1 0 0 4 2 N 1020,4 10 60 0,0
21.11.2017 12:00:00 12,5 7,8 14,2 9,6 14,1 0 0 8 4 N 1021,3 10 60 0,0
21.11.2017 11:00:00 8,9 6,7 8,0 9,7 14,1 0 0 4 2 N 1021,6 10 51 0,0
21.11.2017 10:00:00 5,3 4,3 3,8 9,7 14,1 0 0 7 4 N 1021,7 10 60 0,0
21.11.2017 09:00:00 2,1 1,8 -0,2 9,8 14,1 5 3 6 4 O 1021,6 10 30 0,0
21.11.2017 08:00:00 0,9 0,6 -0,4 9,9 14,2 0 0 6 3 N 1021,0 10 0 0,0
21.11.2017 07:00:00 1,1 0,8 -0,5 10,0 14,2 5 3 7 4 O 1020,9 2,0 0 0,0
21.11.2017 06:00:00 1,6 1,3 0,1 10,0 14,2 5 3 6 4 ONO 1020,9 4,3 0 0,0
21.11.2017 05:00:00 1,5 1,2 0,5 10,1 14,2 5 3 8 5 O 1020,9 0,9 0 0,0
21.11.2017 04:00:00 2,2 1,9 1,0 10,1 14,2 4 2 8 4 O 1021,0 0,5 0 0,0
21.11.2017 03:00:00 2,7 2,4 1,8 10,2 14,2 0 0 5 3 N 1021,5 0,1 0 0,0
21.11.2017 02:00:00 3,2 2,9 2,1 10,2 14,2 0 0 5 3 N 1021,7 0,1 0 0,0
21.11.2017 01:00:00 3,4 3,1 2,8 10,3 14,2 4 2 8 5 O 1022,1 0,1 0 0,0
21.11.2017 00:00:00 4,5 4,1 3,6 10,3 14,2 4 2 11 6 NO 1022,1 0,1 0 0,0
20.11.2017 23:00:00 5,7 5,3 4,4 10,3 14,2 8 4 14 7 NO 1022,1 2,7 0 0,0
20.11.2017 22:00:00 6,3 5,6 4,5 10,4 14,3 4 2 10 6 ONO 1021,9 3,3 0 0,0
20.11.2017 21:00:00 7,4 6,3 6,8 10,3 14,3 8 4 13 7 NO 1022,0 5 0 0,0
20.11.2017 20:00:00 8,4 6,9 7,6 10,3 14,3 8 4 17 9 NO 1022,1 8 0 0,0
20.11.2017 19:00:00 9,6 7,4 8,8 10,3 14,3 9 5 14 8 NO 1021,9 10 0 0,0
20.11.2017 18:00:00 10,4 8,0 8,6 10,1 14,3 4 2 15 8 - 1021,8 10 7 0,0
20.11.2017 17:00:00 12,0 8,1 12,0 10,0 14,3 9 5 23 12 ONO 1022,0 10 57 0,0
20.11.2017 16:00:00 13,3 8,4 13,8 9,9 14,3 13 7 23 12 O 1022,2 31 57 0,0
20.11.2017 15:00:00 12,8 7,9 14,4 9,7 14,3 15 8 26 14 ONO 1022,6 10 60 0,0
20.11.2017 14:00:00 11,7 7,6 13,9 9,6 14,3 15 8 24 13 NO 1023,2 10 60 0,0
20.11.2017 13:00:00 10,3 7,2 13,2 9,6 14,3 11 6 17 9 NO 1023,9 9 60 0,0
20.11.2017 12:00:00 8,6 6,2 9,8 9,5 14,3 9 5 13 7 NO 1024,6 7 60 0,0
20.11.2017 11:00:00 6,1 4,6 5,6 9,6 14,3 5 3 13 7 - 1025,3 3,0 60 0,0
20.11.2017 10:00:00 2,8 2,5 1,7 9,6 14,3 5 3 11 6 ONO 1025,2 1,0 60 0,0
20.11.2017 09:00:00 0,6 0,5 -1,2 9,7 14,3 5 3 10 6 O 1025,2 0,6 31 0,0
20.11.2017 08:00:00 -0,2 -0,5 -0,9 9,8 14,4 2 1 7 4 - 1025,3 0,4 0 0,0
20.11.2017 07:00:00 0,5 0,4 0,0 9,9 14,4 5 3 12 6 O 1024,9 0,3 0 0,0
20.11.2017 06:00:00 0,4 0,3 -0,1 9,9 14,4 5 3 11 6 - 1024,8 0,4 0 0,0
20.11.2017 05:00:00 0,7 0,4 -0,8 10,0 14,4 5 3 11 6 NO 1024,8 2,1 0 0,0
20.11.2017 04:00:00 0,8 0,5 -0,7 10,1 14,4 0 0 5 3 N 1024,8 1,7 0 0,0
20.11.2017 03:00:00 1,2 0,8 -0,1 10,1 14,4 5 3 10 5 - 1025,4 1,4 0 0,0
20.11.2017 02:00:00 2,7 2,6 -0,2 10,2 14,4 5 3 13 7 NO 1026,0 2,5 0 0,0
20.11.2017 01:00:00 2,3 2,0 0,3 10,3 14,4 4 2 8 4 - 1026,4 1,5 0 0,0
20.11.2017 00:00:00 2,0 1,6 0,3 10,4 14,4 0 0 7 4 N 1026,4 0,1 0 0,0
19.11.2017 23:00:00 3,3 3,0 2,1 10,5 14,4 4 2 10 5 - 1026,6 0,2 0 0,0
19.11.2017 22:00:00 4,1 3,7 1,9 10,5 14,5 4 2 6 4 NO 1026,4 1,7 0 0,0
19.11.2017 21:00:00 3,6 2,7 1,9 10,5 14,4 0 0 4 2 N 1025,9 2,8 0 0,0
19.11.2017 20:00:00 4,8 3,6 3,6 10,6 14,5 0 0 4 2 N 1026,0 3,4 0 0,0
19.11.2017 19:00:00 6,3 4,0 5,1 10,6 14,5 3 2 5 3 N 1025,8 3,5 0 0,0
19.11.2017 18:00:00 7,8 4,6 6,7 10,5 14,5 0 0 2 1 N 1025,6 10 11 0,0
19.11.2017 17:00:00 10,5 5,0 11,0 10,4 14,5 0 0 5 3 N 1025,3 10 60 0,0
19.11.2017 16:00:00 9,9 5,5 12,1 10,3 14,5 4 2 6 4 - 1025,3 10 60 0,0
19.11.2017 15:00:00 8,4 6,2 7,5 10,2 14,5 0 0 8 5 N 1025,5 7 37 0,0
19.11.2017 14:00:00 6,2 6,1 6,5 10,1 14,5 0 0 5 3 N 1026,3 2,7 0 0,0
19.11.2017 13:00:00 4,8 4,8 5,2 10,1 14,5 4 2 8 4 - 1026,7 0,3 0 0,0
19.11.2017 12:00:00 3,7 3,7 3,6 10,0 14,5 2 1 6 4 - 1027,1 0,1 0 0,0
19.11.2017 11:00:00 2,4 2,4 1,8 10,1 14,5 4 2 6 4 - 1027,0 - 0 0,0
19.11.2017 10:00:00 1,1 1,1 0,9 10,1 14,5 4 2 9 5 - 1026,6 - 0 0,0
19.11.2017 09:00:00 0,5 0,5 0,1 10,1 14,5 4 2 5 3 - 1026,5 - 0 0,0
19.11.2017 08:00:00 -0,1 -0,1 0,0 10,1 14,5 0 0 6 4 N 1026,0 - 0 0,0
19.11.2017 07:00:00 0,1 0,1 0,1 10,2 14,5 4 2 6 3 - 1025,8 - 0 0,0
19.11.2017 06:00:00 0,5 0,5 0,3 10,3 14,5 4 2 6 3 - 1025,4 - 0 0,0
19.11.2017 05:00:00 0,4 0,3 0,1 10,4 14,6 0 0 5 3 N 1025,3 0,1 0 0,0
19.11.2017 04:00:00 0,1 0,0 -0,2 10,4 14,6 0 0 4 2 N 1025,4 - 0 0,0
19.11.2017 03:00:00 0,2 0,1 -0,3 10,5 14,6 0 0 4 2 N 1025,4 0,1 0 0,0
19.11.2017 02:00:00 0,3 0,0 -0,3 10,6 14,6 2 1 4 2 OZO 1025,1 0,1 0 0,0
19.11.2017 01:00:00 0,8 0,5 -0,1 10,7 14,6 0 0 3 2 N 1025,4 - 0 0,0
19.11.2017 00:00:00 1,2 0,9 0,3 10,8 14,6 0 0 4 2 N 1025,5 - 0 0,0
18.11.2017 23:00:00 1,8 1,4 0,5 10,9 14,6 0 0 4 2 N 1025,6 - 0 0,0
18.11.2017 22:00:00 2,6 1,7 0,6 11,0 14,6 0 0 5 3 N 1025,6 1,4 0 0,0
18.11.2017 21:00:00 4,3 3,7 2,4 11,0 14,6 2 1 4 2 N 1025,5 0,8 0 0,0
18.11.2017 20:00:00 5,5 4,8 3,8 11,1 14,6 0 0 3 2 N 1025,2 1,9 0 0,0
18.11.2017 19:00:00 6,4 5,2 5,3 11,1 14,7 0 0 2 1 N 1025,1 2,5 0 0,0
18.11.2017 18:00:00 8,1 5,9 6,8 11,0 14,6 0 0 4 2 N 1024,9 7 12 0,0
18.11.2017 17:00:00 10,0 6,5 10,4 11,0 14,7 0 0 8 4 N 1024,7 9 60 0,0

tt = temperatuur
td = dauwpunt
tt 5cm = temperatuur 5cm
tt -20cm = temperatuur -20cm
tt -100cm = temperatuur -100cm
ff = windsnelheid
fx = windstoten
dd = windrichting
ppp = luchtdruk
vv = zicht
sd = Zonneschijnduur
rr = neerslag

Weerstations in de omgeving